Terminal Aerodrome Forecast
Issued by NWS Green Bay, WI

Home | Current Version | Previous Version | Graphics & Text | Print | Product List | Glossary On
Versions: 1 2 3 4 5 6 7 8 9 10 11 12 13 14 15 16 17 18 19 20 21 22 23 24 25 26 27 28 29 30 31 32 33 34 35 36
000
FTUS43 KGRB 271900 AAB
TAFGRB
TAF AMD
KGRB 271952Z 2720/2818 35012G19KT P6SM VCSH SCT040 BKN080
      TEMPO 2720/2721 4SM -SHRA BR SCT025 BKN040
     FM272100 36010G17KT P6SM SCT025 BKN035
     FM280000 36012KT P6SM SCT015 BKN030
     FM280300 36011KT P6SM SCT030
     FM280600 35009KT P6SM SKC
     FM281600 36010G16KT P6SM SCT040=

USA.gov is the U.S. government's official web portal to all federal, state and local government web resources and services.